Location: Boussy-Saint-Antoine
(48.6830°N, 2.5330°E)
Time: 03:14:24
(UTC+02:00)

KKS-1 - Pass Details

Date: 26 July 2019
Orbit: 637 x 650 km, 98.3° (Epoch: 24 August)

Event Time Altitude Azimuth Distance (km) Brightness Sun altitude
Rises 23:00:21 0° 357° (N) 2,952 ? -11.5°
Reaches altitude 10° 23:04:02 10° 325° (NW) 2,038 ? -11.9°
Maximum altitude 23:05:29 11° 305° (NW) 1,938 ? -12.0°
Drops below altitude 10° 23:06:55 10° 286° (WNW) 2,035 ? -12.2°
Sets 23:10:37 0° 254° (WSW) 2,940 ? -12.6°
